TAM4648 SBGO-SBBR

Flight info

Callsign TAM4648
Flight time 0h 21m
Altitude 17000
Route LODUV Z15 PAJEM
Aircraft A321/M-SDE2FGHIM1RWXYZ/LB1

Departure

Time 2026-04-24 20:59
Airport Santa Genoveva International Airport (SBGO)

Arrival

Time 2026-04-24 21:21
Airport Presidente Juscelino Kubitschek International Airport (SBBR)
Time Latitude Longitude Altitude Speed Heading
2026-04-24 20:18 -16.62910 -49.21562 2463 ft 0 kts 75°
2026-04-24 20:49 -16.62913 -49.21573 2462 ft 3 kts 75°
2026-04-24 20:49 -16.62918 -49.21593 2462 ft 3 kts 75°
2026-04-24 20:50 -16.62924 -49.21612 2462 ft 3 kts 56°
2026-04-24 20:50 -16.62936 -49.21624 2462 ft 3 kts
2026-04-24 20:50 -16.62954 -49.21621 2468 ft 3 kts 333°
2026-04-24 20:50 -16.62972 -49.21611 2468 ft 3 kts 335°
2026-04-24 20:51 -16.62974 -49.21610 2462 ft 0 kts 336°
2026-04-24 20:52 -16.62960 -49.21616 2463 ft 4 kts 337°
2026-04-24 20:53 -16.62934 -49.21630 2462 ft 5 kts 323°
2026-04-24 20:53 -16.62920 -49.21685 2464 ft 11 kts 263°
2026-04-24 20:53 -16.62939 -49.21776 2460 ft 15 kts 258°
2026-04-24 20:53 -16.62963 -49.21887 2453 ft 16 kts 258°
2026-04-24 20:54 -16.62989 -49.22010 2450 ft 18 kts 259°
2026-04-24 20:54 -16.62990 -49.22098 2450 ft 9 kts 278°
2026-04-24 20:54 -16.62976 -49.22154 2447 ft 9 kts 290°
2026-04-24 20:54 -16.62949 -49.22208 2451 ft 9 kts 301°
2026-04-24 20:55 -16.62910 -49.22277 2456 ft 10 kts 300°
2026-04-24 20:55 -16.62866 -49.22355 2454 ft 11 kts 300°
2026-04-24 20:55 -16.62818 -49.22441 2460 ft 16 kts 300°
2026-04-24 20:55 -16.62765 -49.22535 2461 ft 14 kts 300°
2026-04-24 20:56 -16.62715 -49.22625 2461 ft 15 kts 300°
2026-04-24 20:56 -16.62663 -49.22718 2460 ft 15 kts 300°
2026-04-24 20:56 -16.62620 -49.22794 2461 ft 8 kts 301°
2026-04-24 20:56 -16.62585 -49.22856 2464 ft 12 kts 301°
2026-04-24 20:57 -16.62580 -49.22912 2461 ft 13 kts 239°
2026-04-24 20:57 -16.62610 -49.22938 2455 ft 0 kts 213°
2026-04-24 20:57 -16.62632 -49.22952 2461 ft 8 kts 212°
2026-04-24 20:58 -16.62689 -49.22983 2458 ft 8 kts 192°
2026-04-24 20:58 -16.62719 -49.22956 2462 ft 5 kts 123°
2026-04-24 20:58 -16.62731 -49.22936 2459 ft 5 kts 121°
2026-04-24 20:58 -16.62735 -49.22928 2456 ft 0 kts 121°
2026-04-24 20:59 -16.62760 -49.22885 2461 ft 33 kts 120°
2026-04-24 20:59 -16.62898 -49.22640 2461 ft 84 kts 120°
2026-04-24 20:59 -16.63490 -49.21588 2516 ft 158 kts 122°
2026-04-24 20:59 -16.64024 -49.20635 3332 ft 148 kts 122°
2026-04-24 21:00 -16.64521 -49.19698 3798 ft 150 kts 121°
2026-04-24 21:00 -16.64995 -49.18726 4224 ft 153 kts 111°
2026-04-24 21:00 -16.65040 -49.17965 4363 ft 170 kts 78°
2026-04-24 21:00 -16.64425 -49.16826 4535 ft 195 kts 52°
2026-04-24 21:01 -16.63518 -49.15666 4683 ft 217 kts 53°
2026-04-24 21:01 -16.62529 -49.14381 4821 ft 237 kts 53°
2026-04-24 21:01 -16.61082 -49.12471 5053 ft 268 kts 53°
2026-04-24 21:01 -16.59904 -49.10910 5626 ft 277 kts 53°
2026-04-24 21:02 -16.59100 -49.09838 6115 ft 279 kts 53°
2026-04-24 21:02 -16.57509 -49.07719 7096 ft 281 kts 53°
2026-04-24 21:02 -16.56708 -49.06649 7548 ft 284 kts 53°
2026-04-24 21:02 -16.55069 -49.04463 8532 ft 288 kts 52°
2026-04-24 21:03 -16.54249 -49.03368 9025 ft 290 kts 52°
2026-04-24 21:03 -16.52997 -49.01696 9774 ft 294 kts 52°
2026-04-24 21:03 -16.51318 -48.99453 10670 ft 298 kts 52°
2026-04-24 21:03 -16.50453 -48.98295 11129 ft 301 kts 52°
2026-04-24 21:04 -16.49162 -48.96565 11819 ft 304 kts 52°
2026-04-24 21:04 -16.47870 -48.94840 12462 ft 307 kts 52°
2026-04-24 21:04 -16.46547 -48.93078 13106 ft 310 kts 52°
2026-04-24 21:04 -16.45209 -48.91296 13714 ft 314 kts 52°
2026-04-24 21:05 -16.43824 -48.89449 13897 ft 333 kts 52°
2026-04-24 21:05 -16.42355 -48.87491 14020 ft 352 kts 52°
2026-04-24 21:05 -16.40817 -48.85446 14275 ft 364 kts 52°
2026-04-24 21:05 -16.38736 -48.82675 14885 ft 369 kts 52°
2026-04-24 21:06 -16.37674 -48.81248 15019 ft 369 kts 53°
2026-04-24 21:06 -16.35706 -48.78353 15101 ft 370 kts 56°
2026-04-24 21:06 -16.34771 -48.76874 15098 ft 370 kts 57°
2026-04-24 21:06 -16.33386 -48.74617 15030 ft 370 kts 57°
2026-04-24 21:07 -16.32010 -48.72356 15030 ft 370 kts 57°
2026-04-24 21:07 -16.30626 -48.70101 15029 ft 369 kts 57°
2026-04-24 21:07 -16.29230 -48.67855 15029 ft 370 kts 57°
2026-04-24 21:07 -16.27820 -48.65615 15029 ft 370 kts 57°
2026-04-24 21:08 -16.26403 -48.63384 15030 ft 370 kts 56°
2026-04-24 21:08 -16.25022 -48.61202 15027 ft 358 kts 58°
2026-04-24 21:08 -16.23986 -48.58927 15030 ft 341 kts 71°
2026-04-24 21:08 -16.23386 -48.56559 14692 ft 339 kts 76°
2026-04-24 21:09 -16.22814 -48.54128 13908 ft 351 kts 75°
2026-04-24 21:09 -16.22232 -48.51656 13294 ft 353 kts 76°
2026-04-24 21:09 -16.21650 -48.49190 12836 ft 349 kts 75°
2026-04-24 21:09 -16.21071 -48.46750 12409 ft 345 kts 75°
2026-04-24 21:10 -16.20501 -48.44342 11982 ft 341 kts 76°
2026-04-24 21:10 -16.19946 -48.41988 11569 ft 338 kts 76°
2026-04-24 21:10 -16.19388 -48.39629 11164 ft 334 kts 76°
2026-04-24 21:10 -16.18830 -48.37293 10765 ft 331 kts 76°
2026-04-24 21:11 -16.18275 -48.34978 10355 ft 328 kts 76°
2026-04-24 21:11 -16.17730 -48.32696 10101 ft 320 kts 76°
2026-04-24 21:11 -16.17205 -48.30490 9982 ft 308 kts 76°
2026-04-24 21:11 -16.16705 -48.28374 9661 ft 296 kts 76°
2026-04-24 21:12 -16.16228 -48.26350 9326 ft 277 kts 76°
2026-04-24 21:12 -16.15696 -48.24493 8949 ft 262 kts 63°
2026-04-24 21:12 -16.14686 -48.23024 8656 ft 244 kts 43°
2026-04-24 21:12 -16.13334 -48.22054 8493 ft 231 kts 24°
2026-04-24 21:13 -16.11841 -48.21571 8352 ft 220 kts 14°
2026-04-24 21:13 -16.10367 -48.21193 8102 ft 217 kts 15°
2026-04-24 21:13 -16.08965 -48.20617 8059 ft 221 kts 24°
2026-04-24 21:13 -16.07539 -48.19947 8073 ft 227 kts 24°
2026-04-24 21:14 -16.06097 -48.19268 8079 ft 228 kts 24°
2026-04-24 21:14 -16.04651 -48.18586 8081 ft 228 kts 24°
2026-04-24 21:14 -16.03226 -48.17914 8086 ft 228 kts 25°
2026-04-24 21:14 -16.01783 -48.17230 8093 ft 228 kts 25°
2026-04-24 21:15 -16.00331 -48.16539 7804 ft 231 kts 25°
2026-04-24 21:15 -15.98851 -48.15837 7218 ft 236 kts 25°
2026-04-24 21:15 -15.97345 -48.15125 6708 ft 237 kts 25°
2026-04-24 21:15 -15.95860 -48.14422 6337 ft 231 kts 25°
2026-04-24 21:16 -15.94419 -48.13740 6029 ft 225 kts 25°
2026-04-24 21:16 -15.93022 -48.13082 5791 ft 217 kts 25°
2026-04-24 21:16 -15.91655 -48.12436 5639 ft 214 kts 25°
2026-04-24 21:16 -15.90400 -48.11667 5498 ft 212 kts 41°
2026-04-24 21:17 -15.89476 -48.10487 5330 ft 211 kts 62°
2026-04-24 21:17 -15.89035 -48.09078 5175 ft 202 kts 84°
2026-04-24 21:17 -15.88938 -48.07630 5089 ft 200 kts 87°
2026-04-24 21:17 -15.88848 -48.06249 5050 ft 182 kts 87°
2026-04-24 21:18 -15.88767 -48.04980 5075 ft 171 kts 87°
2026-04-24 21:18 -15.88690 -48.03769 5072 ft 165 kts 87°
2026-04-24 21:18 -15.88615 -48.02598 5037 ft 164 kts 87°
2026-04-24 21:18 -15.88540 -48.01422 4894 ft 162 kts 87°
2026-04-24 21:19 -15.88467 -48.00265 4711 ft 160 kts 86°
2026-04-24 21:19 -15.88394 -47.99122 4515 ft 158 kts 86°
2026-04-24 21:19 -15.88321 -47.97987 4311 ft 157 kts 87°
2026-04-24 21:19 -15.88249 -47.96856 4113 ft 157 kts 87°
2026-04-24 21:20 -15.88098 -47.94603 3693 ft 155 kts 87°
2026-04-24 21:20 -15.88035 -47.93494 3509 ft 147 kts 88°
2026-04-24 21:20 -15.87976 -47.92558 3478 ft 110 kts 86°
2026-04-24 21:21 -15.87940 -47.92031 3471 ft 41 kts 86°
2026-04-24 21:21 -15.87870 -47.91796 3466 ft 14 kts 58°
2026-04-24 21:21 -15.87814 -47.91711 3463 ft 16 kts 58°
2026-04-24 21:21 -15.87786 -47.91663 3460 ft 8 kts 57°
2026-04-24 21:22 -15.87744 -47.91598 3461 ft 14 kts 56°
2026-04-24 21:22 -15.87653 -47.91553 3463 ft 16 kts 358°
2026-04-24 21:22 -15.87534 -47.91560 3468 ft 17 kts 356°
2026-04-24 21:22 -15.87429 -47.91568 3471 ft 13 kts 357°
2026-04-24 21:23 -15.87340 -47.91574 3471 ft 12 kts 356°
2026-04-24 21:23 -15.87260 -47.91579 3471 ft 11 kts 356°
2026-04-24 21:23 -15.87190 -47.91583 3472 ft 9 kts 356°
2026-04-24 21:23 -15.87129 -47.91587 3472 ft 9 kts 356°
2026-04-24 21:24 -15.87064 -47.91603 3472 ft 9 kts 312°
2026-04-24 21:24 -15.87056 -47.91660 3472 ft 7 kts 268°
2026-04-24 21:24 -15.87059 -47.91720 3472 ft 7 kts 266°
2026-04-24 21:24 -15.87065 -47.91769 3472 ft 5 kts 243°
2026-04-24 21:25 -15.87094 -47.91776 3472 ft 5 kts 182°
2026-04-24 21:25 -15.87116 -47.91775 3472 ft 0 kts 177°